Location: Ash Swamp
(41.5170°N, 74.6157°W)
Time: 17:29:17
(UTC+00:00)

Cosmos 2221 Rocket - Pass Details

Date: 14 July 2020
Orbit: 619 x 649 km, 82.5° (Epoch: 05 August)

Event Time Altitude Azimuth Distance (km) Brightness Sun altitude
Rises 07:03:38 0° 352° (N) 2,907 7.8 -21.1°
Reaches altitude 10° 07:05:52 10° 353° (N) 1,995 6.9 -20.9°
Maximum altitude 07:10:17 84° 81° (E) 628 3.5 -20.5°
Enters shadow 07:11:44 42° 167° (SSE) 880 4.0 -20.3°
